Location: Cactus School
(34.5700°N, 118.0931°W)
Time: 08:45:08
(UTC-07:00)

S-56A Canister/Altair - Pass Details

Date: 21 April 2024
Orbit: 638 x 2488 km, 38.9° (Epoch: 29 May)

Event Time Altitude Azimuth Distance (km) Brightness Sun altitude
Rises 23:51:52 0° 287° (WNW) 4,476 11.8 -41.3°
Reaches altitude 10° 23:54:43 10° 280° (W) 3,733 11.2 -41.5°
Enters shadow 23:59:33 30° 257° (WSW) 2,822 10.3 -41.8°
Maximum altitude 00:03:56 41° 215° (SW) 2,662 - -42.0°
Drops below altitude 10° 00:16:21 10° 152° (SSE) 4,986 - -42.6°
Sets 00:20:52 0° 146° (SE) 6,103 - -42.8°
